Year,Month,Day,Hour,Minute,Value (Times are PST for temperature in C)
2009,01,29,00,00,1.70
2009,01,29,00,01,1.70
2009,01,29,00,02,1.70
2009,01,29,00,03,1.70
2009,01,29,00,04,1.70
2009,01,29,00,05,1.70
2009,01,29,00,06,1.70
2009,01,29,00,07,1.60
2009,01,29,00,08,1.60
2009,01,29,00,09,1.60
2009,01,29,00,10,1.60
2009,01,29,00,11,1.60
2009,01,29,00,12,1.60
2009,01,29,01,02,1.60
2009,01,29,01,03,1.60
2009,01,29,01,04,1.60
2009,01,29,01,05,1.60
2009,01,29,01,06,1.60
2009,01,29,01,07,1.60
2009,01,29,01,08,1.60
2009,01,29,01,09,1.60
2009,01,29,01,10,1.60
2009,01,29,01,11,1.60
2009,01,29,01,12,1.60
2009,01,29,01,13,1.60
2009,01,29,01,14,1.60
2009,01,29,01,15,1.60
2009,01,29,01,16,1.60
2009,01,29,01,17,1.60
2009,01,29,01,18,1.60
2009,01,29,01,19,1.60
2009,01,29,01,20,1.60
2009,01,29,01,21,1.60
2009,01,29,01,22,1.70
2009,01,29,01,23,1.70
2009,01,29,01,24,1.70
2009,01,29,01,25,1.70
2009,01,29,01,26,1.70
2009,01,29,01,27,1.70
2009,01,29,01,28,1.60
2009,01,29,01,29,1.60
2009,01,29,01,30,1.60
2009,01,29,01,31,1.60
2009,01,29,01,32,1.60
2009,01,29,01,33,1.60
2009,01,29,01,34,1.60
2009,01,29,01,35,1.60
2009,01,29,01,36,1.60
2009,01,29,01,37,1.60
2009,01,29,01,38,1.60
2009,01,29,01,39,1.50
2009,01,29,01,40,1.50
2009,01,29,01,41,1.50
2009,01,29,01,42,1.50
2009,01,29,01,43,1.50
2009,01,29,01,44,1.50
2009,01,29,01,45,1.50
2009,01,29,01,46,1.50
2009,01,29,01,47,1.50
2009,01,29,01,48,1.50
2009,01,29,01,49,1.50
2009,01,29,01,50,1.50
2009,01,29,01,51,1.50
2009,01,29,01,52,1.50
2009,01,29,01,53,1.50
2009,01,29,01,54,1.50
2009,01,29,01,55,1.50
2009,01,29,01,56,1.50
2009,01,29,01,57,1.50
2009,01,29,01,58,1.50
2009,01,29,01,59,1.60
2009,01,29,02,00,1.60
2009,01,29,02,01,1.60
2009,01,29,02,02,1.60
2009,01,29,02,03,1.60
2009,01,29,02,04,1.60
2009,01,29,02,05,1.60
2009,01,29,02,06,1.60
2009,01,29,02,07,1.60
2009,01,29,02,08,1.60
2009,01,29,02,09,1.60
2009,01,29,02,10,1.60
2009,01,29,02,11,1.60
2009,01,29,02,12,1.60
2009,01,29,02,13,1.50
2009,01,29,02,14,1.50
2009,01,29,02,15,1.50
2009,01,29,02,16,1.50
2009,01,29,02,17,1.50
2009,01,29,02,18,1.40
2009,01,29,02,19,1.40
2009,01,29,02,20,1.40
2009,01,29,02,21,1.30
2009,01,29,02,22,1.30
2009,01,29,02,23,1.30
2009,01,29,02,24,1.30
2009,01,29,02,25,1.30
2009,01,29,02,26,1.30
2009,01,29,02,27,1.30
2009,01,29,02,28,1.20
2009,01,29,02,29,1.20
2009,01,29,02,30,1.20
2009,01,29,02,31,1.20
2009,01,29,02,32,1.10
2009,01,29,02,33,1.10
2009,01,29,02,34,1.10
2009,01,29,02,35,1.10
2009,01,29,02,36,1.10
2009,01,29,02,37,1.10
2009,01,29,02,38,1.00
2009,01,29,02,39,1.00
2009,01,29,02,40,1.00
2009,01,29,02,41,1.00
2009,01,29,02,42,1.00
2009,01,29,02,43,1.00
2009,01,29,02,44,1.00
2009,01,29,02,45,0.90
2009,01,29,02,46,0.90
2009,01,29,02,47,0.90
2009,01,29,02,48,0.90
2009,01,29,02,49,0.90
2009,01,29,02,50,0.90
2009,01,29,02,51,0.90
2009,01,29,02,52,0.90
2009,01,29,02,53,0.90
2009,01,29,02,54,0.80
2009,01,29,02,55,0.80
2009,01,29,02,56,0.80
2009,01,29,02,57,0.80
2009,01,29,02,58,0.80
2009,01,29,02,59,0.80
2009,01,29,03,00,0.80
2009,01,29,03,01,0.80
2009,01,29,03,02,0.80
2009,01,29,03,03,0.80
2009,01,29,03,04,0.80
2009,01,29,03,05,0.80
2009,01,29,03,06,0.80
2009,01,29,03,07,0.80
2009,01,29,03,08,0.80
2009,01,29,03,09,0.80
2009,01,29,03,10,0.80
2009,01,29,03,11,0.80
2009,01,29,03,12,0.80
2009,01,29,03,13,0.80
2009,01,29,03,14,0.80
2009,01,29,03,15,0.80
2009,01,29,03,16,0.80
2009,01,29,03,17,0.80
2009,01,29,03,18,0.80
2009,01,29,03,19,0.80
2009,01,29,03,20,0.80
2009,01,29,03,21,0.80
2009,01,29,03,22,0.80
2009,01,29,03,23,0.80
2009,01,29,03,24,0.80
2009,01,29,03,25,0.90
2009,01,29,03,26,0.90
2009,01,29,03,27,0.90
2009,01,29,03,28,0.90
2009,01,29,03,29,0.90
2009,01,29,03,30,0.90
2009,01,29,03,31,0.90
2009,01,29,03,32,0.90
2009,01,29,03,33,0.90
2009,01,29,03,34,0.90
2009,01,29,03,35,0.90
2009,01,29,03,36,1.00
2009,01,29,03,37,1.00
2009,01,29,03,38,1.00
2009,01,29,03,39,1.00
2009,01,29,03,40,1.00
2009,01,29,03,41,1.00
2009,01,29,03,42,1.00
2009,01,29,03,43,1.00
2009,01,29,03,44,1.00
2009,01,29,03,45,1.00
2009,01,29,03,46,1.00
2009,01,29,03,47,1.00
2009,01,29,03,48,1.00
2009,01,29,03,49,1.10
2009,01,29,03,50,1.10
2009,01,29,03,51,1.10
2009,01,29,03,52,1.10
2009,01,29,03,53,1.10
2009,01,29,03,54,1.10
2009,01,29,03,55,1.10
2009,01,29,03,56,1.10
2009,01,29,03,57,1.10
2009,01,29,03,58,1.10
2009,01,29,03,59,1.10
2009,01,29,04,00,1.10
2009,01,29,04,01,1.10
2009,01,29,04,02,1.10
2009,01,29,04,03,1.10
2009,01,29,04,04,1.10
2009,01,29,04,05,1.10
2009,01,29,04,06,1.10
2009,01,29,04,07,1.10
2009,01,29,04,08,1.10
2009,01,29,04,09,1.10
2009,01,29,04,10,1.10
2009,01,29,04,11,1.10
2009,01,29,04,12,1.10
2009,01,29,04,13,1.10
2009,01,29,04,14,1.10
2009,01,29,04,15,1.10
2009,01,29,04,16,1.10
2009,01,29,04,17,1.10
2009,01,29,04,18,1.10
2009,01,29,04,19,1.10
2009,01,29,04,20,1.10
2009,01,29,04,21,1.10
2009,01,29,04,22,1.10
2009,01,29,04,23,1.10
2009,01,29,04,24,1.00
2009,01,29,04,25,1.00
2009,01,29,04,26,1.00
2009,01,29,04,27,1.00
2009,01,29,04,28,1.00
2009,01,29,04,29,1.00
2009,01,29,04,30,1.00
2009,01,29,04,31,1.00
2009,01,29,04,32,1.00
2009,01,29,04,33,1.00
2009,01,29,04,34,1.00
2009,01,29,04,35,1.00
2009,01,29,04,36,1.00
2009,01,29,04,37,1.00
2009,01,29,04,38,1.00
2009,01,29,04,39,1.00
2009,01,29,04,40,1.10
2009,01,29,04,41,1.10
2009,01,29,04,42,1.00
2009,01,29,04,43,1.00
2009,01,29,04,44,1.00
2009,01,29,04,45,1.00
2009,01,29,04,46,1.00
2009,01,29,04,47,1.00
2009,01,29,04,48,1.00
2009,01,29,04,49,1.00
2009,01,29,04,50,1.00
2009,01,29,04,51,1.00
2009,01,29,04,52,1.00
2009,01,29,04,53,1.00
2009,01,29,04,54,1.00
2009,01,29,04,55,1.00
2009,01,29,04,56,1.00
2009,01,29,04,57,1.00
2009,01,29,04,58,1.00
2009,01,29,04,59,1.00
2009,01,29,05,00,1.00
2009,01,29,05,01,1.00
2009,01,29,05,02,1.00
2009,01,29,05,03,1.00
2009,01,29,05,04,0.90
2009,01,29,05,05,0.90
2009,01,29,05,06,0.90
2009,01,29,05,07,0.90
2009,01,29,05,08,0.90
2009,01,29,05,09,0.90
2009,01,29,05,10,0.90
2009,01,29,05,11,0.90
2009,01,29,05,12,0.90
2009,01,29,05,13,0.90
2009,01,29,05,14,0.90
2009,01,29,05,15,0.90
2009,01,29,05,16,0.90
2009,01,29,05,17,0.90
2009,01,29,05,18,0.90
2009,01,29,05,19,0.90
2009,01,29,05,20,0.80
2009,01,29,05,21,0.80
2009,01,29,05,22,0.80
2009,01,29,05,23,0.80
2009,01,29,05,24,0.80
2009,01,29,05,25,0.80
2009,01,29,05,26,0.80
2009,01,29,05,27,0.80
2009,01,29,05,28,0.80
2009,01,29,05,29,0.80
2009,01,29,05,30,0.80
2009,01,29,05,31,0.80
2009,01,29,05,32,0.80
2009,01,29,05,33,0.80
2009,01,29,05,34,0.80
2009,01,29,05,35,0.80
2009,01,29,05,36,0.70
2009,01,29,05,37,0.70
2009,01,29,05,38,0.70
2009,01,29,05,39,0.70
2009,01,29,05,40,0.70
2009,01,29,05,41,0.70
2009,01,29,05,42,0.70
2009,01,29,05,43,0.70
2009,01,29,05,44,0.80
2009,01,29,05,45,0.80
2009,01,29,05,46,0.80
2009,01,29,05,47,0.90
2009,01,29,05,48,0.90
2009,01,29,05,49,0.90
2009,01,29,05,50,1.00
2009,01,29,05,51,1.00
2009,01,29,05,52,1.10
2009,01,29,05,53,1.20
2009,01,29,05,54,1.20
2009,01,29,05,55,1.30
2009,01,29,05,56,1.30
2009,01,29,05,57,1.30
2009,01,29,05,58,1.30
2009,01,29,05,59,1.40
2009,01,29,06,00,1.50
2009,01,29,06,01,1.50
2009,01,29,06,02,1.60
2009,01,29,06,03,1.70
2009,01,29,06,04,1.80
2009,01,29,06,05,2.00
2009,01,29,06,06,2.10
2009,01,29,06,07,2.20
2009,01,29,06,08,2.30
2009,01,29,06,09,2.40
2009,01,29,06,10,2.40
2009,01,29,06,11,2.50
2009,01,29,06,12,2.60
2009,01,29,06,13,2.70
2009,01,29,06,14,2.70
2009,01,29,06,15,2.80
2009,01,29,06,16,2.90
2009,01,29,06,17,2.90
2009,01,29,06,18,3.10
2009,01,29,06,19,3.10
2009,01,29,06,20,3.10
2009,01,29,06,21,3.10
2009,01,29,06,22,3.10
2009,01,29,06,23,3.20
2009,01,29,06,24,3.30
2009,01,29,06,25,3.30
2009,01,29,06,26,3.30
2009,01,29,06,27,3.30
2009,01,29,06,28,3.30
2009,01,29,06,29,3.40
2009,01,29,06,30,3.40
2009,01,29,06,31,3.40
2009,01,29,06,32,3.50
2009,01,29,06,33,3.50
2009,01,29,06,34,3.50
2009,01,29,06,35,3.50
2009,01,29,06,36,3.60
2009,01,29,06,37,3.60
2009,01,29,06,38,3.60
2009,01,29,06,39,3.60
2009,01,29,06,40,3.70
2009,01,29,06,41,3.70
2009,01,29,06,42,3.70
2009,01,29,06,43,3.80
2009,01,29,06,44,3.80
2009,01,29,06,45,3.80
2009,01,29,06,46,3.80
2009,01,29,06,47,3.80
2009,01,29,06,48,3.80
2009,01,29,06,49,3.80
2009,01,29,06,50,3.80
2009,01,29,06,51,3.80
2009,01,29,06,52,3.80
2009,01,29,06,53,3.80
2009,01,29,06,54,3.80
2009,01,29,06,55,3.80
2009,01,29,06,56,3.80
2009,01,29,06,57,3.80
2009,01,29,06,58,3.80
2009,01,29,06,59,3.80
2009,01,29,07,00,3.80
2009,01,29,07,01,3.80
2009,01,29,07,02,3.80
2009,01,29,07,03,3.80
2009,01,29,07,04,3.80
2009,01,29,07,05,3.80
2009,01,29,07,06,3.80
2009,01,29,07,07,3.80
2009,01,29,07,08,3.80
2009,01,29,07,09,3.80
2009,01,29,07,10,3.80
2009,01,29,07,11,3.80
2009,01,29,07,12,3.80
2009,01,29,07,13,3.90
2009,01,29,07,14,3.90
2009,01,29,07,15,3.90
2009,01,29,07,16,3.90
2009,01,29,07,17,4.00
2009,01,29,07,18,4.00
2009,01,29,07,19,4.00
2009,01,29,07,20,4.00
2009,01,29,07,21,4.00
2009,01,29,07,22,4.00
2009,01,29,07,23,4.00
2009,01,29,07,24,4.00
2009,01,29,07,25,4.00
2009,01,29,07,26,4.00
2009,01,29,07,27,4.00
2009,01,29,07,28,4.00
2009,01,29,07,29,4.00
2009,01,29,07,30,4.00
2009,01,29,07,31,4.00
2009,01,29,07,32,4.00
2009,01,29,07,33,4.00
2009,01,29,07,34,4.00
2009,01,29,07,35,4.00
2009,01,29,07,36,4.00
2009,01,29,07,37,4.00
2009,01,29,07,38,4.00
2009,01,29,07,39,4.00
2009,01,29,07,40,4.00
2009,01,29,07,41,4.00
2009,01,29,07,42,4.00
2009,01,29,07,43,4.00
2009,01,29,07,44,4.00
2009,01,29,07,45,4.00
2009,01,29,07,46,4.00
2009,01,29,07,47,3.90
2009,01,29,07,48,3.90
2009,01,29,07,49,3.90
2009,01,29,07,50,3.90
2009,01,29,07,51,3.90
2009,01,29,07,52,3.90
2009,01,29,07,53,3.90
2009,01,29,07,54,3.90
2009,01,29,07,55,3.90
2009,01,29,07,56,3.90
2009,01,29,07,57,3.90
2009,01,29,07,58,3.90
2009,01,29,07,59,3.90
2009,01,29,08,00,3.90
2009,01,29,08,01,3.90
2009,01,29,08,02,3.90
2009,01,29,08,03,3.90
2009,01,29,08,04,3.90
2009,01,29,08,05,3.90
2009,01,29,08,06,3.90
2009,01,29,08,07,3.90
2009,01,29,08,08,3.90
2009,01,29,08,09,3.90
2009,01,29,08,10,3.90
2009,01,29,08,11,3.90
2009,01,29,08,12,3.90
2009,01,29,08,13,3.90
2009,01,29,08,14,3.90
2009,01,29,08,15,3.90
2009,01,29,08,16,3.90
2009,01,29,08,17,3.90
2009,01,29,08,18,3.90
2009,01,29,08,19,3.90
2009,01,29,08,20,3.90
2009,01,29,08,21,3.90
2009,01,29,08,22,3.90
2009,01,29,08,23,3.90
2009,01,29,08,24,3.90
2009,01,29,08,25,3.90
2009,01,29,08,26,3.90
2009,01,29,08,27,3.90
2009,01,29,08,28,3.90
2009,01,29,08,29,3.90
2009,01,29,08,30,3.90
2009,01,29,08,31,3.90
2009,01,29,08,32,3.90
2009,01,29,08,33,3.90
2009,01,29,08,34,3.90
2009,01,29,08,35,3.90
2009,01,29,08,36,3.90
2009,01,29,08,37,3.90
2009,01,29,08,38,3.90
2009,01,29,08,39,3.90
2009,01,29,08,40,3.90
2009,01,29,08,41,3.90
2009,01,29,08,42,3.90
2009,01,29,08,43,3.90
2009,01,29,08,44,3.90
2009,01,29,08,45,3.90
2009,01,29,08,46,3.90
2009,01,29,08,47,3.90
2009,01,29,08,48,3.90
2009,01,29,08,49,3.80
2009,01,29,08,50,3.80
2009,01,29,08,51,3.80
2009,01,29,08,52,3.80
2009,01,29,08,53,3.80
2009,01,29,08,54,3.80
2009,01,29,08,55,3.80
2009,01,29,08,56,3.80
2009,01,29,08,57,3.80
2009,01,29,08,58,3.80
2009,01,29,08,59,3.80
2009,01,29,09,00,3.80
2009,01,29,09,01,3.80
2009,01,29,09,02,3.80
2009,01,29,09,03,3.80
2009,01,29,09,04,3.80
2009,01,29,09,05,3.80
2009,01,29,09,06,3.90
2009,01,29,09,07,3.90
2009,01,29,09,08,4.00
2009,01,29,09,09,4.00
2009,01,29,09,10,4.00
2009,01,29,09,11,4.10
2009,01,29,09,12,4.20
2009,01,29,09,13,4.20
2009,01,29,09,14,4.20
2009,01,29,09,15,4.20
2009,01,29,09,16,4.30
2009,01,29,09,17,4.30
2009,01,29,09,18,4.30
2009,01,29,09,19,4.40
2009,01,29,09,20,4.40
2009,01,29,09,21,4.50
2009,01,29,09,22,4.50
2009,01,29,09,23,4.60
2009,01,29,09,24,4.60
2009,01,29,09,25,4.60
2009,01,29,09,26,4.60
2009,01,29,09,27,4.60
2009,01,29,09,28,4.60
2009,01,29,09,29,4.70
2009,01,29,09,30,4.70
2009,01,29,09,31,4.70
2009,01,29,09,32,4.70
2009,01,29,09,33,4.70
2009,01,29,09,34,4.80
2009,01,29,09,35,4.80
2009,01,29,09,36,4.80
2009,01,29,09,37,4.80
2009,01,29,09,38,4.90
2009,01,29,09,39,4.90
2009,01,29,09,40,4.90
2009,01,29,09,41,4.90
2009,01,29,09,42,4.90
2009,01,29,09,43,4.90
2009,01,29,09,44,4.90
2009,01,29,09,45,5.00
2009,01,29,09,46,5.10
2009,01,29,09,47,5.10
2009,01,29,09,48,5.10
2009,01,29,09,49,5.10
2009,01,29,09,50,5.10
2009,01,29,09,51,5.10
2009,01,29,09,52,5.10
2009,01,29,09,53,5.10
2009,01,29,09,54,5.10
2009,01,29,09,55,5.20
2009,01,29,09,56,5.20
2009,01,29,09,57,5.20
2009,01,29,09,58,5.20
2009,01,29,09,59,5.20
2009,01,29,10,00,5.20
2009,01,29,10,01,5.20
2009,01,29,10,02,5.20
2009,01,29,10,03,5.30
2009,01,29,10,04,5.30
2009,01,29,10,05,5.30
2009,01,29,10,06,5.30
2009,01,29,10,07,5.30
2009,01,29,10,08,5.30
2009,01,29,10,09,5.30
2009,01,29,10,10,5.30
2009,01,29,10,11,5.30
2009,01,29,10,12,5.30
2009,01,29,10,13,5.30
2009,01,29,10,14,5.30
2009,01,29,10,15,5.30
2009,01,29,10,16,5.30
2009,01,29,10,17,5.30
2009,01,29,10,18,5.30
2009,01,29,10,19,5.30
2009,01,29,10,20,5.30
2009,01,29,10,21,5.30
2009,01,29,10,22,5.30
2009,01,29,10,23,5.30
2009,01,29,10,24,5.30
2009,01,29,10,25,5.30
2009,01,29,10,26,5.30
2009,01,29,10,27,5.40
2009,01,29,10,28,5.40
2009,01,29,10,29,5.40
2009,01,29,10,30,5.40
2009,01,29,10,31,5.40
2009,01,29,10,32,5.50
2009,01,29,10,33,5.50
2009,01,29,10,34,5.50
2009,01,29,10,35,5.50
2009,01,29,10,36,5.50
2009,01,29,10,37,5.60
2009,01,29,10,38,5.60
2009,01,29,10,39,5.60
2009,01,29,10,40,5.70
2009,01,29,10,41,5.70
2009,01,29,10,42,5.70
2009,01,29,10,43,5.70
2009,01,29,10,44,5.70
2009,01,29,10,45,5.70
2009,01,29,10,46,5.70
2009,01,29,10,47,5.70
2009,01,29,10,48,5.80
2009,01,29,10,49,5.80
2009,01,29,10,50,5.80
2009,01,29,10,51,5.80
2009,01,29,10,52,5.90
2009,01,29,10,53,5.90
2009,01,29,10,54,5.90
2009,01,29,10,55,6.00
2009,01,29,10,56,6.00
2009,01,29,10,57,6.00
2009,01,29,10,58,6.10
2009,01,29,10,59,6.10
2009,01,29,11,00,6.10
2009,01,29,11,01,6.10
2009,01,29,11,02,6.20
2009,01,29,11,03,6.20
2009,01,29,11,04,6.20
2009,01,29,11,05,6.20
2009,01,29,11,06,6.20
2009,01,29,11,07,6.20
2009,01,29,11,08,6.20
2009,01,29,11,09,6.20
2009,01,29,11,10,6.30
2009,01,29,11,11,6.30
2009,01,29,11,12,6.30
2009,01,29,11,13,6.30
2009,01,29,11,14,6.30
2009,01,29,11,15,6.40
2009,01,29,11,16,6.40
2009,01,29,11,17,6.40
2009,01,29,11,18,6.40
2009,01,29,11,19,6.40
2009,01,29,11,20,6.50
2009,01,29,11,21,6.60
2009,01,29,11,22,6.60
2009,01,29,11,23,6.60
2009,01,29,11,24,6.60
2009,01,29,11,25,6.60
2009,01,29,11,26,6.60
2009,01,29,11,27,6.60
2009,01,29,11,28,6.60
2009,01,29,11,29,6.60
2009,01,29,11,30,6.60
2009,01,29,11,31,6.60
2009,01,29,11,32,6.60
2009,01,29,11,33,6.60
2009,01,29,11,34,6.70
2009,01,29,11,35,6.70
2009,01,29,11,36,6.70
2009,01,29,11,37,6.70
2009,01,29,11,38,6.70
2009,01,29,11,39,6.70
2009,01,29,11,40,6.70
2009,01,29,11,41,6.70
2009,01,29,11,42,6.80
2009,01,29,11,43,6.80
2009,01,29,11,44,6.80
2009,01,29,11,45,6.80
2009,01,29,11,46,6.90
2009,01,29,11,47,7.00
2009,01,29,11,48,7.00
2009,01,29,11,49,7.10
2009,01,29,11,50,7.20
2009,01,29,11,51,7.30
2009,01,29,11,52,7.30
2009,01,29,11,53,7.40
2009,01,29,11,54,7.50
2009,01,29,11,55,7.50
2009,01,29,11,56,7.60
2009,01,29,11,57,7.60
2009,01,29,11,58,7.70
2009,01,29,11,59,7.70
2009,01,29,12,00,7.70
2009,01,29,12,01,7.70
2009,01,29,12,02,7.70
2009,01,29,12,03,7.80
2009,01,29,12,04,7.80
2009,01,29,12,05,7.80
2009,01,29,12,06,7.90
2009,01,29,12,07,7.90
2009,01,29,12,08,7.90
2009,01,29,12,09,7.90
2009,01,29,12,10,7.90
2009,01,29,12,11,7.90
2009,01,29,12,12,8.00
2009,01,29,12,13,8.00
2009,01,29,12,14,8.00
2009,01,29,12,15,8.10
2009,01,29,12,16,8.10
2009,01,29,12,17,8.10
2009,01,29,12,18,8.10
2009,01,29,12,19,8.20
2009,01,29,12,20,8.20
2009,01,29,12,21,8.10
2009,01,29,12,22,8.10
2009,01,29,12,23,8.10
2009,01,29,12,24,8.20
2009,01,29,12,25,8.20
2009,01,29,12,26,8.20
2009,01,29,12,27,8.20
2009,01,29,12,28,8.20
2009,01,29,12,29,8.20
2009,01,29,12,30,8.20
2009,01,29,12,31,8.20
2009,01,29,12,32,8.20
2009,01,29,12,33,8.20
2009,01,29,12,34,8.20
2009,01,29,12,35,8.20
2009,01,29,12,36,8.20
2009,01,29,12,37,8.20
2009,01,29,12,38,8.20
2009,01,29,12,39,8.30
2009,01,29,12,40,8.40
2009,01,29,12,41,8.40
2009,01,29,12,42,8.50
2009,01,29,12,43,8.60
2009,01,29,12,44,8.60
2009,01,29,12,45,8.70
2009,01,29,12,46,8.70
2009,01,29,12,47,8.60
2009,01,29,12,48,8.60
2009,01,29,12,49,8.60
2009,01,29,12,50,8.60
2009,01,29,12,51,8.60
2009,01,29,12,52,8.60
2009,01,29,12,53,8.60
2009,01,29,12,54,8.50
2009,01,29,12,55,8.50
2009,01,29,12,56,8.50
2009,01,29,12,57,8.40
2009,01,29,12,58,8.40
2009,01,29,12,59,8.30
2009,01,29,13,00,8.20
2009,01,29,13,01,8.20
2009,01,29,13,02,8.20
2009,01,29,13,03,8.10
2009,01,29,13,04,8.10
2009,01,29,13,05,8.00
2009,01,29,13,06,8.00
2009,01,29,13,07,8.00
2009,01,29,13,08,8.00
2009,01,29,13,09,8.00
2009,01,29,13,10,8.00
2009,01,29,13,11,8.00
2009,01,29,13,12,8.00
2009,01,29,13,13,8.00
2009,01,29,13,14,7.90
2009,01,29,13,15,7.90
2009,01,29,13,16,7.80
2009,01,29,13,17,7.80
2009,01,29,13,18,7.80
2009,01,29,13,19,7.70
2009,01,29,13,20,7.70
2009,01,29,13,21,7.70
2009,01,29,13,22,7.70
2009,01,29,13,23,7.60
2009,01,29,13,24,7.60
2009,01,29,13,25,7.60
2009,01,29,13,26,7.60
2009,01,29,13,27,7.50
2009,01,29,13,28,7.40
2009,01,29,13,29,7.40
2009,01,29,13,30,7.40
2009,01,29,13,31,7.30
2009,01,29,13,32,7.40
2009,01,29,13,33,7.40
2009,01,29,13,34,7.50
2009,01,29,13,35,7.50
2009,01,29,13,36,7.40
2009,01,29,13,37,7.40
2009,01,29,13,38,7.30
2009,01,29,13,39,7.30
2009,01,29,13,40,7.30
2009,01,29,13,41,7.30
2009,01,29,13,42,7.30
2009,01,29,13,43,7.30
2009,01,29,13,44,7.30
2009,01,29,13,45,7.30
2009,01,29,13,46,7.20
2009,01,29,13,47,7.20
2009,01,29,13,48,7.20
2009,01,29,13,49,7.10
2009,01,29,13,50,7.10
2009,01,29,13,51,7.10
2009,01,29,13,52,7.10
2009,01,29,13,53,7.10
2009,01,29,13,54,7.10
2009,01,29,13,55,7.10
2009,01,29,13,56,7.00
2009,01,29,13,57,7.00
2009,01,29,13,58,7.00
2009,01,29,13,59,7.00
2009,01,29,14,00,6.90
2009,01,29,14,01,6.80
2009,01,29,14,02,6.80
2009,01,29,14,03,6.80
2009,01,29,14,04,6.80
2009,01,29,14,05,6.80
2009,01,29,14,06,6.80
2009,01,29,14,07,6.80
2009,01,29,14,08,6.80
2009,01,29,14,09,6.80
2009,01,29,14,10,6.80
2009,01,29,14,11,6.80
2009,01,29,14,12,6.80
2009,01,29,14,13,6.80
2009,01,29,14,14,6.80
2009,01,29,14,15,6.80
2009,01,29,14,16,6.80
2009,01,29,14,17,6.80
2009,01,29,14,18,6.80
2009,01,29,14,19,6.80
2009,01,29,14,20,6.80
2009,01,29,14,21,6.80
2009,01,29,14,22,6.70
2009,01,29,14,23,6.70
2009,01,29,14,24,6.70
2009,01,29,14,25,6.70
2009,01,29,14,26,6.70
2009,01,29,14,27,6.60
2009,01,29,14,28,6.60
2009,01,29,14,29,6.60
2009,01,29,14,30,6.60
2009,01,29,14,31,6.60
2009,01,29,14,32,6.70
2009,01,29,14,33,6.70
2009,01,29,14,34,6.70
2009,01,29,14,35,6.70
2009,01,29,14,36,6.70
2009,01,29,14,37,6.70
2009,01,29,14,38,6.70
2009,01,29,14,39,6.70
2009,01,29,14,40,6.70
2009,01,29,14,41,6.70
2009,01,29,14,42,6.60
2009,01,29,14,43,6.60
2009,01,29,14,44,6.60
2009,01,29,14,45,6.60
2009,01,29,14,46,6.60
2009,01,29,14,47,6.60
2009,01,29,14,48,6.60
2009,01,29,14,49,6.60
2009,01,29,14,50,6.60
2009,01,29,14,51,6.60
2009,01,29,14,52,6.60
2009,01,29,14,53,6.60
2009,01,29,14,54,6.60
2009,01,29,14,55,6.60
2009,01,29,14,56,6.60
2009,01,29,14,57,6.60
2009,01,29,14,58,6.60
2009,01,29,14,59,6.60
2009,01,29,15,00,6.60
2009,01,29,15,01,6.60
2009,01,29,15,02,6.60
2009,01,29,15,03,6.60
2009,01,29,15,04,6.60
2009,01,29,15,05,6.60
2009,01,29,15,06,6.60
2009,01,29,15,07,6.60
2009,01,29,15,08,6.70
2009,01,29,15,09,6.70
2009,01,29,15,10,6.70
2009,01,29,15,11,6.70
2009,01,29,15,12,6.70
2009,01,29,15,13,6.70
2009,01,29,15,14,6.70
2009,01,29,15,15,6.70
2009,01,29,15,16,6.70
2009,01,29,15,17,6.70
2009,01,29,15,18,6.70
2009,01,29,15,19,6.70
2009,01,29,15,20,6.70
2009,01,29,15,21,6.60
2009,01,29,15,22,6.60
2009,01,29,15,23,6.60
2009,01,29,15,24,6.60
2009,01,29,15,25,6.60
2009,01,29,15,26,6.60
2009,01,29,15,27,6.60
2009,01,29,15,28,6.60
2009,01,29,15,29,6.60
2009,01,29,15,30,6.60
2009,01,29,15,31,6.60
2009,01,29,15,32,6.60
2009,01,29,15,33,6.60
2009,01,29,15,34,6.60
2009,01,29,15,35,6.60
2009,01,29,15,36,6.60
2009,01,29,15,37,6.60
2009,01,29,15,38,6.60
2009,01,29,15,39,6.60
2009,01,29,15,40,6.60
2009,01,29,15,41,6.60
2009,01,29,15,42,6.60
2009,01,29,15,43,6.60
2009,01,29,15,44,6.60
2009,01,29,15,45,6.60
2009,01,29,15,46,6.60
2009,01,29,15,47,6.60
2009,01,29,15,48,6.50
2009,01,29,15,49,6.40
2009,01,29,15,50,6.40
2009,01,29,15,51,6.40
2009,01,29,15,52,6.40
2009,01,29,15,53,6.40
2009,01,29,15,54,6.40
2009,01,29,15,55,6.40
2009,01,29,15,56,6.30
2009,01,29,15,57,6.30
2009,01,29,15,58,6.30
2009,01,29,15,59,6.30
2009,01,29,16,00,6.30
2009,01,29,16,01,6.30
2009,01,29,16,02,6.30
2009,01,29,16,03,6.20
2009,01,29,16,04,6.20
2009,01,29,16,05,6.20
2009,01,29,16,06,6.20
2009,01,29,16,07,6.20
2009,01,29,16,08,6.20
2009,01,29,16,09,6.20
2009,01,29,16,10,6.20
2009,01,29,16,11,6.20
2009,01,29,16,12,6.20
2009,01,29,16,13,6.20
2009,01,29,16,14,6.10
2009,01,29,16,15,6.10
2009,01,29,16,16,6.10
2009,01,29,16,17,6.10
2009,01,29,16,18,6.10
2009,01,29,16,19,6.10
2009,01,29,16,20,6.10
2009,01,29,16,21,6.10
2009,01,29,16,22,6.00
2009,01,29,16,23,6.00
2009,01,29,16,24,6.00
2009,01,29,16,25,6.00
2009,01,29,16,26,6.00
2009,01,29,16,27,6.00
2009,01,29,16,28,6.00
2009,01,29,16,29,6.00
2009,01,29,16,30,6.00
2009,01,29,16,31,6.00
2009,01,29,16,32,6.00
2009,01,29,16,33,6.00
2009,01,29,16,34,6.00
2009,01,29,16,35,6.00
2009,01,29,16,36,6.00
2009,01,29,16,37,6.00
2009,01,29,16,38,5.90
2009,01,29,16,39,5.90
2009,01,29,16,40,5.90
2009,01,29,16,41,5.90
2009,01,29,16,42,5.90
2009,01,29,16,43,5.90
2009,01,29,16,44,5.90
2009,01,29,16,45,5.90
2009,01,29,16,46,5.90
2009,01,29,16,47,5.90
2009,01,29,16,48,5.90
2009,01,29,16,49,5.90
2009,01,29,16,50,5.90
2009,01,29,16,51,5.90
2009,01,29,16,52,5.80
2009,01,29,16,53,5.80
2009,01,29,16,54,5.80
2009,01,29,16,55,5.80
2009,01,29,16,56,5.80
2009,01,29,16,57,5.80
2009,01,29,16,58,5.80
2009,01,29,16,59,5.80
2009,01,29,17,00,5.80
2009,01,29,17,01,5.80
2009,01,29,17,02,5.80
2009,01,29,17,03,5.80
2009,01,29,17,04,5.80
2009,01,29,17,05,5.70
2009,01,29,17,06,5.70
2009,01,29,17,07,5.70
2009,01,29,17,08,5.70
2009,01,29,17,09,5.70
2009,01,29,17,10,5.70
2009,01,29,17,11,5.70
2009,01,29,17,12,5.70
2009,01,29,17,13,5.70
2009,01,29,17,14,5.70
2009,01,29,17,15,5.70
2009,01,29,17,16,5.70
2009,01,29,17,17,5.70
2009,01,29,17,18,5.70
2009,01,29,17,19,5.70
2009,01,29,17,20,5.70
2009,01,29,17,21,5.70
2009,01,29,17,22,5.70
2009,01,29,17,23,5.70
2009,01,29,17,24,5.70
2009,01,29,17,25,5.70
2009,01,29,17,26,5.70
2009,01,29,17,27,5.70
2009,01,29,17,28,5.70
2009,01,29,17,29,5.70
2009,01,29,17,30,5.70
2009,01,29,17,31,5.70
2009,01,29,17,32,5.70
2009,01,29,17,33,5.70
2009,01,29,17,34,5.70
2009,01,29,17,35,5.70
2009,01,29,17,36,5.70
2009,01,29,17,37,5.70
2009,01,29,17,38,5.70
2009,01,29,17,39,5.70
2009,01,29,17,40,5.70
2009,01,29,17,41,5.70
2009,01,29,17,42,5.70
2009,01,29,17,43,5.70
2009,01,29,17,44,5.70
2009,01,29,17,45,5.70
2009,01,29,17,46,5.70
2009,01,29,17,47,5.70
2009,01,29,17,48,5.70
2009,01,29,17,49,5.70
2009,01,29,17,50,5.70
2009,01,29,17,51,5.70
2009,01,29,17,52,5.70
2009,01,29,17,53,5.70
2009,01,29,17,54,5.70
2009,01,29,17,55,5.70
2009,01,29,17,56,5.70
2009,01,29,17,57,5.70
2009,01,29,17,58,5.70
2009,01,29,17,59,5.70
2009,01,29,18,00,5.70
2009,01,29,18,01,5.70
2009,01,29,18,02,5.70
2009,01,29,18,03,5.70
2009,01,29,18,04,5.70
2009,01,29,18,05,5.70
2009,01,29,18,06,5.70
2009,01,29,18,07,5.70
2009,01,29,18,08,5.70
2009,01,29,18,09,5.70
2009,01,29,18,10,5.70
2009,01,29,18,11,5.70
2009,01,29,18,12,5.70
2009,01,29,18,13,5.70
2009,01,29,18,14,5.70
2009,01,29,18,15,5.70
2009,01,29,18,16,5.70
2009,01,29,18,17,5.70
2009,01,29,18,18,5.70
2009,01,29,18,19,5.70
2009,01,29,18,20,5.70
2009,01,29,18,21,5.70
2009,01,29,18,22,5.70
2009,01,29,18,23,5.70
2009,01,29,18,24,5.70
2009,01,29,18,25,5.70
2009,01,29,18,26,5.70
2009,01,29,18,27,5.70
2009,01,29,18,28,5.70
2009,01,29,18,29,5.70
2009,01,29,18,30,5.70
2009,01,29,18,31,5.70
2009,01,29,18,32,5.70
2009,01,29,18,33,5.70
2009,01,29,18,34,5.70
2009,01,29,18,35,5.70
2009,01,29,18,36,5.70
2009,01,29,18,37,5.60
2009,01,29,18,38,5.60
2009,01,29,18,39,5.60
2009,01,29,18,40,5.60
2009,01,29,18,41,5.60
2009,01,29,18,42,5.60
2009,01,29,18,43,5.60
2009,01,29,18,44,5.60
2009,01,29,18,45,5.60
2009,01,29,18,46,5.60
2009,01,29,18,47,5.60
2009,01,29,18,48,5.60
2009,01,29,18,49,5.60
2009,01,29,18,50,5.60
2009,01,29,18,51,5.60
2009,01,29,18,52,5.60
2009,01,29,18,53,5.60
2009,01,29,18,54,5.60
2009,01,29,18,55,5.60